sat.trackr.live / text

‹ back to catalog

STARLINK-4453

NORAD 53497 · 2022-099AJ

PAYLOAD ACTIVE UNKNOWN

§ Identity

Operator
Country
US
Launch date
2022-08-12
Launch site
AFWTR
Launch vehicle
Mass (kg)
RCS (m²)

Purposes: comms

External: N2YO · Heavens-Above · Gunter

§ Orbital elements

Epoch: 2026-09-20T04:00:03.000096Z

Period
94.56 min
Inclination
97.2834°
Eccentricity
0.0002114
Mean motion
15.22864274 rev/d
Perigee alt
495.8 km
Apogee alt
498.7 km
Semi-major
6,875.3 km
B*
4.9218e-3
RAAN
17.0494°
Arg perigee
76.8340°
Mean anomaly
74.1217°
Rev number
582

§ Raw data

STARLINK-44531 53497U 22099AJ  26263.16670139  .00116940  00000+0  49218-2 0  99982 53497  97.2834  17.0494 0002114  76.8340  74.1217 15.22864274  5822

JSON: /api/v1/satellites/53497 · /tle

For live sub-satellite position, see the globe view (requires WebGL).

§ Visibility from observer

Set your observer location to see the next 7 days of passes ≥ 10°. The values pass through the URL so the page stays shareable.

No JS? Fill the form by hand. The geolocation button needs JavaScript.